STARLINK E (44239 NORAD) Tracking and Keplerian Element Data

This shows tracking and keplerian element data for the satellite.

Feedback or suggestion? Click here.




ElementValue
Catalog44239
NameSTARLINK E
Epoch Orbit461
Epoch Day174.23735823
Epoch Year2019
RAAN37.1657
Inclination53.0084
Eccentricity0.0002658
Argument of Perigee123.512
Mean Anonmoly236.6122
Mean Motion15.0460249
Decay Rate1.09E-06
L11 44239U 19029E 19174.23735823 .00000109 00000-0 27201-4 0 9994
L22 44239 53.0084 37.1657 0002658 123.5120 236.6122 15.04602490 4612

Live tracking and technical data element details for STARLINK E (NORAD 44239). STARLINK E can be tracked NOW for your location showing map with azimuth and elevation plus other details from your city location.

Track the satellite on the map from your city or location and see movement details for azimuth, elevation, latitude, longitude, range, height, and movement on the map or in text.







IsCatalogInMostPopularTable: catalog: 44239, numindb: 39
Update: records affected: 1



GetName: 44239 STARLINK E

Hit Count: updated at: Fri, 19 Jul 2019 22:39:26 GMT